Hourly Weather Tashkent

Today, 7 May, Friday

Time Temperature Precipitation Wind Pressure Humidity
00:00 +19°C° 0 mm 1 mps 721 mmHg 77%
01:00 +19°C° 0 mm 1 mps 721 mmHg 76%
02:00 +19°C° 0 mm 1 mps 721 mmHg 74%
03:00 +19°C° 0 mm 1 mps 721 mmHg 74%
04:00 +19°C° 0 mm 1 mps 721 mmHg 74%
05:00 +19°C° 0 mm 1 mps 721 mmHg 73%
06:00 +20°C° 0 mm 1 mps 721 mmHg 68%
07:00 +21°C° 0 mm 1 mps 721 mmHg 64%
08:00 +23°C° 0 mm 1 mps 722 mmHg 59%
09:00 +24°C° 0 mm 1 mps 722 mmHg 53%
10:00 +26°C° 0 mm 1 mps 722 mmHg 46%
11:00 +27°C° 0 mm 1 mps 722 mmHg 42%
12:00 +28°C° 0 mm 1 mps 722 mmHg 39%
13:00 +29°C° 0 mm 2 mps 722 mmHg 37%
14:00 +30°C° 0 mm 2 mps 722 mmHg 35%
15:00 +30°C° 0 mm 2 mps 721 mmHg 35%
16:00 +30°C° 0 mm 2 mps 721 mmHg 35%
17:00 +30°C° 0 mm 2 mps 721 mmHg 35%
18:00 +28°C° 0 mm 2 mps 721 mmHg 39%
19:00 +26°C° 0 mm 2 mps 721 mmHg 43%
20:00 +25°C° 0 mm 2 mps 721 mmHg 48%
21:00 +24°C° 0 mm 2 mps 721 mmHg 50%
22:00 +24°C° 0 mm 2 mps 721 mmHg 52%
23:00 +23°C° 0 mm 2 mps 721 mmHg 54%

Tomorrow, 8 May, Saturday

Time Temperature Precipitation Wind Pressure Humidity
00:00 +23°C° 0 mm 2 mps 721 mmHg 55%
01:00 +21°C° 0 mm 2 mps 720 mmHg 55%
02:00 +21°C° 0 mm 2 mps 720 mmHg 55%
03:00 +21°C° 0 mm 2 mps 720 mmHg 55%
04:00 +20°C° 0 mm 2 mps 720 mmHg 55%
05:00 +20°C° 0 mm 2 mps 720 mmHg 55%
06:00 +23°C° 0 mm 2 mps 721 mmHg 51%
07:00 +24°C° 0 mm 1 mps 721 mmHg 48%
08:00 +26°C° 0 mm 1 mps 722 mmHg 44%
09:00 +27°C° 0 mm 1 mps 722 mmHg 40%
10:00 +29°C° 0 mm 2 mps 722 mmHg 35%
11:00 +30°C° 0 mm 2 mps 722 mmHg 31%
12:00 +31°C° 0 mm 3 mps 721 mmHg 29%
13:00 +31°C° 0 mm 3 mps 721 mmHg 28%
14:00 +33°C° 0 mm 3 mps 721 mmHg 26%
15:00 +33°C° 0 mm 4 mps 721 mmHg 28%
16:00 +32°C° 0 mm 4 mps 720 mmHg 29%
17:00 +32°C° 0 mm 4 mps 720 mmHg 30%
18:00 +29°C° 0 mm 3 mps 720 mmHg 35%
19:00 +27°C° 0 mm 3 mps 720 mmHg 39%
20:00 +26°C° 0 mm 3 mps 720 mmHg 44%
21:00 +25°C° 0 mm 2 mps 720 mmHg 46%
22:00 +24°C° 0 mm 2 mps 720 mmHg 48%
23:00 +24°C° 0 mm 2 mps 720 mmHg 50%

Day after tomorrow, 9 May, Sunday

Time Temperature Precipitation Wind Pressure Humidity
00:00 +23°C° 0 mm 2 mps 719 mmHg 50%
01:00 +23°C° 0 mm 2 mps 719 mmHg 49%
02:00 +23°C° 0 mm 2 mps 719 mmHg 49%
03:00 +21°C° 0 mm 2 mps 719 mmHg 49%
04:00 +21°C° 0 mm 2 mps 719 mmHg 48%
05:00 +22°C° 0 mm 1 mps 719 mmHg 48%
06:00 +21°C° 0 mm 2 mps 720 mmHg 47%
07:00 +22°C° 0 mm 3 mps 720 mmHg 46%
08:00 +22°C° 0 mm 3 mps 721 mmHg 45%
09:00 +24°C° 0 mm 3 mps 721 mmHg 43%
10:00 +26°C° 0 mm 3 mps 721 mmHg 41%
11:00 +27°C° 0 mm 3 mps 721 mmHg 38%
12:00 +28°C° 0 mm 3 mps 721 mmHg 37%
13:00 +28°C° 0 mm 3 mps 721 mmHg 36%
14:00 +29°C° 0 mm 3 mps 721 mmHg 35%
15:00 +29°C° 0 mm 4 mps 721 mmHg 37%
16:00 +28°C° 0 mm 4 mps 720 mmHg 40%
17:00 +28°C° 0 mm 5 mps 720 mmHg 42%
18:00 +26°C° 0 mm 5 mps 720 mmHg 47%
19:00 +25°C° 0 mm 4 mps 720 mmHg 52%
20:00 +22°C° 0 mm 3 mps 720 mmHg 58%
21:00 +21°C° 0 mm 3 mps 720 mmHg 60%
22:00 +21°C° 0 mm 3 mps 720 mmHg 62%
23:00 +20°C° 0 mm 3 mps 720 mmHg 65%

10 May, Monday

Time Temperature Precipitation Wind Pressure Humidity
00:00 +20°C° 0 mm 3 mps 719 mmHg 65%
01:00 +19°C° 0 mm 3 mps 719 mmHg 66%
02:00 +19°C° 0 mm 3 mps 718 mmHg 67%
03:00 +19°C° 0 mm 2 mps 718 mmHg 66%
04:00 +19°C° 0 mm 2 mps 718 mmHg 65%
05:00 +18°C° 0 mm 2 mps 718 mmHg 64%
06:00 +20°C° 0 mm 2 mps 718 mmHg 60%
07:00 +21°C° 0 mm 2 mps 718 mmHg 56%
08:00 +23°C° 0 mm 2 mps 719 mmHg 52%
09:00 +24°C° 0 mm 2 mps 719 mmHg 48%
10:00 +26°C° 0 mm 3 mps 719 mmHg 44%
11:00 +27°C° 0 mm 3 mps 719 mmHg 41%
12:00 +28°C° 0 mm 3 mps 719 mmHg 39%
13:00 +28°C° 0 mm 3 mps 718 mmHg 37%
14:00 +29°C° 0 mm 4 mps 718 mmHg 36%
15:00 +28°C° 0 mm 4 mps 718 mmHg 38%
16:00 +27°C° 0 mm 4 mps 718 mmHg 40%
17:00 +26°C° 0 mm 5 mps 718 mmHg 42%
18:00 +25°C° 0 mm 4 mps 718 mmHg 42%
19:00 +23°C° 0 mm 4 mps 718 mmHg 43%
20:00 +22°C° 0 mm 4 mps 718 mmHg 43%
21:00 +21°C° 0 mm 3 mps 718 mmHg 45%
22:00 +20°C° 0 mm 3 mps 719 mmHg 46%
23:00 +19°C° 0 mm 3 mps 719 mmHg 48%

11 May, Tuesday

Time Temperature Precipitation Wind Pressure Humidity
00:00 +19°C° 0 mm 3 mps 719 mmHg 49%
01:00 +18°C° 0 mm 3 mps 718 mmHg 51%
02:00 +18°C° 0 mm 3 mps 718 mmHg 53%
03:00 +17°C° 0 mm 2 mps 718 mmHg 55%
04:00 +17°C° 0 mm 2 mps 719 mmHg 58%
05:00 +16°C° 0 mm 2 mps 719 mmHg 61%
06:00 +18°C° 0 mm 2 mps 719 mmHg 56%
07:00 +19°C° 0 mm 2 mps 720 mmHg 52%
08:00 +20°C° 0 mm 2 mps 720 mmHg 48%
09:00 +23°C° 0 mm 2 mps 721 mmHg 42%
10:00 +25°C° 0 mm 3 mps 721 mmHg 37%
11:00 +26°C° 0 mm 3 mps 721 mmHg 31%
12:00 +27°C° 0 mm 3 mps 721 mmHg 29%
13:00 +28°C° 0 mm 4 mps 721 mmHg 26%
14:00 +29°C° 0 mm 5 mps 721 mmHg 24%
15:00 +28°C° 0 mm 5 mps 721 mmHg 24%
16:00 +28°C° 0 mm 5 mps 721 mmHg 25%
17:00 +28°C° 0 mm 5 mps 721 mmHg 25%
18:00 +26°C° 0 mm 4 mps 721 mmHg 30%
19:00 +23°C° 0 mm 4 mps 720 mmHg 36%
20:00 +21°C° 0 mm 3 mps 720 mmHg 41%
21:00 +20°C° 0 mm 3 mps 720 mmHg 43%
22:00 +19°C° 0 mm 3 mps 720 mmHg 45%
23:00 +19°C° 0 mm 2 mps 720 mmHg 47%

12 May, Wednesday

Time Temperature Precipitation Wind Pressure Humidity
00:00 +18°C° 0 mm 2 mps 720 mmHg 49%
01:00 +18°C° 0 mm 2 mps 720 mmHg 50%
02:00 +17°C° 0 mm 2 mps 719 mmHg 52%
03:00 +17°C° 0 mm 2 mps 719 mmHg 54%
04:00 +16°C° 0 mm 1 mps 719 mmHg 55%
05:00 +16°C° 0 mm 1 mps 719 mmHg 56%
06:00 +19°C° 0 mm 1 mps 719 mmHg 52%
07:00 +20°C° 0 mm 1 mps 720 mmHg 48%
08:00 +22°C° 0 mm 1 mps 720 mmHg 43%
09:00 +24°C° 0 mm 2 mps 720 mmHg 39%
10:00 +25°C° 0 mm 2 mps 720 mmHg 34%
11:00 +27°C° 0 mm 2 mps 720 mmHg 29%
12:00 +28°C° 0 mm 2 mps 720 mmHg 27%
13:00 +28°C° 0 mm 2 mps 720 mmHg 25%
14:00 +29°C° 0 mm 1 mps 719 mmHg 22%
15:00 +29°C° 0 mm 1 mps 719 mmHg 22%
16:00 +30°C° 0 mm 1 mps 719 mmHg 22%
17:00 +30°C° 0 mm 1 mps 718 mmHg 22%
18:00 +28°C° 0 mm 1 mps 718 mmHg 28%
19:00 +26°C° 0 mm 2 mps 718 mmHg 33%
20:00 +24°C° 0 mm 2 mps 718 mmHg 39%
21:00 +23°C° 0 mm 2 mps 718 mmHg 42%
22:00 +21°C° 0 mm 2 mps 717 mmHg 44%
23:00 +20°C° 0 mm 2 mps 717 mmHg 47%
Show more